INMARSAT 5-F2 (40384 NORAD) Tracking and Keplerian Element Data

This shows tracking and keplerian element data for the satellite.

Feedback or suggestion? Click here.




ElementValue
Catalog40384
NameINMARSAT 5-F2
Epoch Orbit3357
Epoch Day158.69572475
Epoch Year2024
RAAN3.6028
Inclination0.023
Eccentricity2.9E-05
Argument of Perigee125.2207
Mean Anonmoly322.2305
Mean Motion1.00270241
Decay Rate-2.84E-06
L11 40384U 15005A 24158.69572475 -.00000284 00000+0 00000+0 0 9998
L22 40384 0.0230 3.6028 0000290 125.2207 322.2305 1.00270241 33577



Live tracking and technical data element details for INMARSAT 5-F2 (NORAD 40384). INMARSAT 5-F2 can be tracked NOW for your location showing map with azimuth and elevation plus other details from your city location.







IsCatalogInMostPopularTable: catalog: 40384, numindb: 627
Update: records affected: 1



GetName: 40384 INMARSAT 5-F2

Hit Count: updated at: Tue, 18 Jun 2024 00:22:55 GMT